sat.trackr.live / text

‹ back to catalog

STARLINK-30759

NORAD 58122 · 2023-162E

PAYLOAD ACTIVE UNKNOWN

§ Identity

Operator
Country
US
Launch date
2023-10-22
Launch site
AFETR
Launch vehicle
Mass (kg)
RCS (m²)

Purposes: comms

External: N2YO · Heavens-Above · Gunter

§ Orbital elements

Epoch: 2026-09-20T23:06:07.942752Z

Period
94.27 min
Inclination
43.0047°
Eccentricity
0.0001611
Mean motion
15.27580533 rev/d
Perigee alt
481.9 km
Apogee alt
484.2 km
Semi-major
6,861.2 km
B*
2.8306e-5
RAAN
109.5243°
Arg perigee
267.7883°
Mean anomaly
92.2784°
Rev number
16,218

§ Raw data

STARLINK-307591 58122U 23162E   26263.96259193  .00000517  00000+0  28306-4 0  99902 58122  43.0047 109.5243 0001611 267.7883  92.2784 15.27580533162181

JSON: /api/v1/satellites/58122 · /tle

For live sub-satellite position, see the globe view (requires WebGL).

§ Visibility from observer

Set your observer location to see the next 7 days of passes ≥ 10°. The values pass through the URL so the page stays shareable.

No JS? Fill the form by hand. The geolocation button needs JavaScript.